Vagabond Aaf / Yakim, WA

4:36 AM PDT on April 23, 2017 (GMT -0700)
Vagabond Aaf / Yakim

Weather History for K1YT - April, 2014

Change the Weather History Date:

Friday, April 18, 2014

  Actual Average (KYKM) Record (KYKM)
Temperature  
Mean Temperature 48 °F -  
Max Temperature 58 °F 62 °F 84 °F (1952)
Min Temperature 38 °F 34 °F 23 °F (1964)
Degree Days  
Heating Degree Days 16    
Moisture  
Dew Point 26 °F    
Average Humidity 43    
Maximum Humidity 63    
Minimum Humidity 25    
Precipitation  
Precipitation 0.00 in - - ()
Sea Level Pressure  
Sea Level Pressure 29.97 in    
Wind  
Wind Speed 9 mph (WNW)    
Max Wind Speed 15 mph    
Max Gust Speed 23 mph    
Visibility 12 miles    
Events      
Averages and records for this station are not official NWS values.
T = Trace of Precipitation, MM = Missing Value Source: NWS Daily Summary

Daily Weather History Graph

Daily Weather History Graph

Search for Another Location

Airport or City:

Trip Planner

Search our weather history database for the weather conditions in past years. The results will help you decide how hot, cold, wet, or windy it might be!

Date:

Astronomy

Apr. 18, 2014 Rise Set
Actual Time 6:08 AM PDT 7:54 PM PDT
Civil Twilight 5:36 AM PDT 8:26 PM PDT
Nautical Twilight 4:57 AM PDT 9:05 PM PDT
Astronomical Twilight 4:15 AM PDT 9:48 PM PDT
Moon 11:52 PM PDT (4/18) 8:27 AM PDT (4/18)
Length of Visible Light 14h 49m
Length of Day
13h 45m
Waning Gibbous, 86% of the Moon is Illuminated
Apr 18
Waning Gibbous
Apr 22
Last Quarter
Apr 28
New
May 6
First Quarter
May 14
Full

Hourly Weather History & Observations

Time (PDT) Temp. Windchill Dew Point Humidity Pressure Visibility Wind Dir Wind Speed Gust Speed Precip Events Conditions
12:56 AM 45.9 °F 40.4 °F 31.5 °F 57% 29.82 in 12.0 mi WSW 11.5 mph 19.6 mph N/A   Clear
1:56 AM 44.6 °F - 30.4 °F 57% 29.85 in 12.0 mi WSW 2.3 mph - N/A   Clear
2:56 AM 42.4 °F 40.7 °F 29.7 °F 61% 29.89 in 12.0 mi West 3.5 mph - N/A   Clear
3:56 AM 41.5 °F 35.9 °F 26.8 °F 56% 29.91 in 12.0 mi SW 9.2 mph - N/A   Clear
4:56 AM 42.3 °F 35.1 °F 25.2 °F 51% 29.91 in 12.0 mi SSW 13.8 mph - N/A   Clear
5:56 AM 41.5 °F 36.4 °F 25.0 °F 52% 29.94 in 12.0 mi SW 8.1 mph - N/A   Clear
6:56 AM 40.6 °F - 25.0 °F 54% 29.97 in 12.0 mi South 2.3 mph - N/A   Clear
7:56 AM 42.6 °F - 27.1 °F 54% 29.99 in 12.0 mi Variable 2.3 mph - N/A   Clear
8:56 AM 48.4 °F - 25.9 °F 42% 29.99 in 12.0 mi West 11.5 mph 19.6 mph N/A   Clear
9:56 AM 51.4 °F - 22.8 °F 33% 29.99 in 12.0 mi NW 6.9 mph - N/A   Clear
10:56 AM 54.1 °F - 22.3 °F 29% 30.00 in 12.0 mi West 15.0 mph 19.6 mph N/A   Clear
11:56 AM 55.0 °F - 22.5 °F 28% 30.01 in 12.0 mi West 10.4 mph 20.7 mph N/A   Clear
12:56 PM 56.8 °F - 21.0 °F 25% 30.02 in 12.0 mi NNW 10.4 mph 18.4 mph N/A   Clear
1:56 PM 55.9 °F - 23.2 °F 28% 30.01 in 12.0 mi Variable 5.8 mph 15.0 mph N/A   Partly Cloudy
2:56 PM 55.8 °F - 26.1 °F 32% 30.01 in 12.0 mi West 10.4 mph - N/A   Clear
3:26 PM 57.2 °F - 26.6 °F 31% 30.01 in 12.0 mi NNW 13.8 mph 23.0 mph N/A   Clear
3:56 PM 55.9 °F - 25.9 °F 31% 30.01 in 12.0 mi NNE 11.5 mph - N/A   Clear
4:56 PM 57.7 °F - 24.8 °F 28% 30.00 in 12.0 mi North 4.6 mph - N/A   Clear
5:56 PM 56.8 °F - 26.8 °F 32% 29.99 in 12.0 mi NNE 8.1 mph - N/A   Clear
6:56 PM 54.5 °F - 28.8 °F 37% 29.98 in 12.0 mi NE 9.2 mph - N/A   Clear
7:56 PM 48.6 °F - 28.0 °F 45% 29.98 in 12.0 mi ESE 10.4 mph - N/A   Clear
8:56 PM 46.6 °F - 28.4 °F 49% 29.99 in 12.0 mi ESE 11.5 mph - N/A   Clear
9:56 PM 45.7 °F 40.2 °F 29.1 °F 52% 29.98 in 12.0 mi ESE 11.5 mph - N/A   Clear
10:56 PM 44.6 °F 38.4 °F 28.9 °F 54% 29.97 in 12.0 mi ESE 12.7 mph - N/A   Clear
11:56 PM 38.1 °F 33.7 °F 26.4 °F 63% 29.96 in 12.0 mi ENE 5.8 mph - N/A   Clear